Lapse_Rate
6.9 7.0 7.1 7.3 7.2 7.0 6.6 6.5 6.7 6.6 6.5 6.4 6.4 6.6 6.7 7.0 6.8 6.8 7.0 7.1 7.4 7.7 7.9 7.9 8.0 8.1 8.3 7.5 7.4 8.0 8.4 8.0 8.4 8.6 8.5 8.5 8.5 8.0 7.9 7.9 7.6 7.7 7.7 7.1 6.9
7.0 7.1 7.2 7.3 7.4 7.1 6.6 6.5 6.8 6.7 6.6 6.4 6.4 6.5 6.7 6.8 6.8 6.8 7.2 7.1 7.1 7.4 7.7 8.0 8.1 8.2 7.9 7.5 7.9 8.2 8.4 8.3 8.6 7.7 9.0 8.4 8.2 7.9 8.5 8.3 8.0 7.9 7.4 7.4 7.3
7.1 7.2 7.4 7.4 7.5 7.3 6.9 6.6 7.0 6.8 6.7 6.6 6.6 6.6 6.7 6.9 6.7 7.0 7.0 7.1 7.1 7.3 7.5 8.0 8.2 8.6 8.2 7.4 8.1 8.3 8.7 8.8 9.0 8.2 8.7 9.2 8.9 7.4 7.9 8.6 8.2 8.2 8.1 7.9 7.6
7.3 7.4 7.5 7.5 7.6 7.7 7.4 7.0 7.1 7.1 6.9 6.8 6.9 6.8 6.7 6.8 6.4 6.5 6.5 6.8 7.3 7.2 7.5 7.8 8.3 8.4 8.5 8.1 8.1 8.2 8.7 9.6 9.2 9.1 9.1 8.4 7.3 7.8 8.4 8.5 8.0 8.0 8.1 8.1 7.8
7.4 7.5 7.6 7.6 7.7 7.9 7.8 7.4 7.5 7.4 7.3 7.1 7.1 7.0 6.9 6.8 6.5 6.7 6.8 6.8 7.3 7.5 7.5 7.7 8.2 8.4 8.5 8.6 8.1 8.7 9.0 9.4 9.5 9.5 9.1 8.6 8.6 7.9 7.6 7.6 7.8 8.1 7.8 8.0 7.9
7.5 7.5 7.6 7.7 7.8 8.0 7.9 7.7 7.7 7.8 7.6 7.4 7.3 7.3 7.2 7.1 6.8 6.9 7.1 7.1 7.2 7.6 7.6 7.7 8.2 8.5 8.3 8.2 9.1 9.1 9.0 9.7 9.7 9.6 9.5 9.2 8.8 8.2 8.3 7.5 7.1 7.2 7.7 7.9 7.6
7.5 7.7 7.7 7.8 7.9 8.0 8.0 7.8 7.9 7.9 7.8 7.6 7.6 7.5 7.5 7.4 7.1 7.1 7.5 7.3 7.4 7.6 7.7 7.5 7.8 7.7 8.2 8.4 8.4 8.9 9.6 9.7 9.7 9.6 9.5 9.3 8.9 9.2 9.6 8.1 7.3 6.8 7.5 7.1 7.1
7.4 7.7 7.8 8.0 8.1 8.1 8.1 8.1 8.1 8.1 7.8 7.7 7.7 7.8 7.9 7.5 7.4 7.4 7.4 7.4 7.3 7.3 7.6 7.6 7.0 7.4 7.9 8.0 8.9 9.2 9.7 9.5 9.6 9.6 9.3 9.5 9.6 9.2 8.9 8.8 7.9 7.4 7.3 7.1 7.0
7.4 7.6 7.7 7.9 8.2 8.3 8.2 8.3 8.4 8.3 8.0 7.8 7.8 8.0 8.2 7.8 7.7 7.5 7.5 7.5 7.3 7.2 7.4 7.6 7.5 8.0 8.2 8.0 8.6 9.0 9.0 8.6 9.1 9.4 9.4 9.4 9.2 9.0 8.8 8.8 8.6 7.7 7.0 7.6 7.2
7.4 7.5 7.7 7.8 8.0 8.1 8.2 8.4 8.4 8.3 8.3 8.2 7.9 8.1 8.0 8.1 7.6 7.6 7.5 7.4 7.4 7.5 7.5 7.4 7.6 8.0 8.2 8.1 8.6 8.8 9.0 8.9 9.0 9.0 9.2 9.3 9.2 8.9 8.9 9.1 9.0 7.8 7.2 7.4 6.9
7.3 7.4 7.6 7.8 7.9 8.0 8.1 8.2 8.2 8.1 8.3 8.4 7.9 8.1 8.1 8.0 8.0 7.9 7.7 7.5 7.4 7.4 7.5 7.8 7.9 7.8 8.2 8.6 9.3 9.5 9.5 9.2 8.9 9.1 9.0 9.2 9.5 9.2 9.0 9.2 8.9 8.0 7.2 7.2 6.9
7.1 7.3 7.5 7.7 7.8 7.9 7.9 7.8 8.2 8.0 8.4 8.5 8.3 8.4 8.3 8.0 8.0 7.9 7.9 7.7 7.6 7.6 7.8 8.0 7.8 8.1 8.6 8.9 9.4 9.2 9.3 9.4 9.0 9.2 9.0 9.3 9.4 9.7 9.0 8.5 8.2 8.6 7.9 8.3 7.6
7.1 7.2 7.4 7.5 7.7 7.8 8.0 7.8 8.1 7.9 7.9 9.0 8.7 8.5 9.0 8.1 8.2 8.4 8.0 7.9 7.8 8.0 8.0 8.1 8.3 8.8 9.2 9.1 9.4 9.8 9.2 9.4 9.0 9.8 9.4 9.3 9.5 9.2 8.5 9.3 8.5 8.3 8.9 9.3 8.0
7.1 7.2 7.3 7.3 7.4 7.7 7.3 7.8 7.9 7.8 7.5 8.4 8.9 8.7 8.6 8.5 8.4 8.7 8.3 8.2 8.0 8.1 8.3 8.4 8.6 9.1 9.6 9.5 9.5 9.7 9.6 9.9 9.5 9.1 9.0 9.5 9.4 9.0 9.2 9.1 9.0 9.0 8.3 9.1 8.1
7.1 7.1 7.3 7.2 7.4 7.2 7.7 8.1 7.8 7.6 6.9 9.1 9.3 9.0 8.9 8.5 9.1 8.7 8.7 8.4 8.3 8.4 8.6 8.4 8.8 9.3 9.5 9.5 9.6 9.5 9.6 9.6 9.6 9.3 9.6 9.5 9.4 8.6 8.8 9.0 9.2 9.1 8.1 8.2 8.1
7.1 7.2 7.2 7.3 7.5 7.1 7.4 7.6 7.6 7.3 7.4 9.1 9.2 8.9 8.7 8.7 8.6 8.9 8.9 8.7 8.5 8.5 8.6 8.6 9.0 9.2 9.3 9.3 9.2 9.1 9.4 9.5 9.6 9.5 8.9 9.4 9.3 8.8 8.8 9.4 9.1 8.7 8.4 8.9 8.4
6.9 7.0 7.2 7.4 7.2 7.3 7.8 7.5 7.3 7.0 8.4 9.2 9.5 9.5 8.9 8.8 8.7 8.9 8.9 8.7 8.5 8.5 8.5 8.6 8.8 9.1 9.1 9.3 9.1 9.1 9.3 9.1 8.2 7.7 7.2 9.3 9.2 9.0 9.2 9.5 8.8 8.7 8.7 8.6 8.5
6.8 7.0 7.0 7.1 7.1 7.5 7.5 7.2 6.6 7.8 8.6 9.4 9.3 9.4 9.4 9.0 8.9 9.0 9.2 8.9 8.8 8.6 8.6 8.7 8.9 8.8 8.8 8.9 9.0 9.3 9.4 9.0 7.5 7.3 8.4 9.6 9.2 9.2 9.1 9.5 9.2 8.9 8.7 8.6 8.2
6.8 7.0 7.0 6.8 7.1 7.0 7.0 6.6 6.9 8.1 8.6 9.1 9.1 9.3 9.6 9.6 9.4 9.2 9.3 9.1 8.9 8.8 8.7 8.7 8.8 9.5 9.5 9.3 9.1 9.2 9.3 9.1 9.1 9.3 9.0 9.2 8.7 8.7 9.0 9.4 9.4 9.1 8.7 8.5 8.0
6.9 7.0 6.8 7.3 6.9 6.7 6.5 6.5 7.0 8.2 8.8 8.6 8.9 9.3 9.6 9.5 9.6 9.6 9.5 9.5 9.2 9.2 9.1 9.2 9.0 9.3 9.4 9.5 9.4 9.2 9.2 9.5 9.4 7.9 7.8 8.4 8.4 9.0 8.9 9.3 9.1 8.6 8.6 8.1 7.9
7.0 6.8 7.1 7.0 6.7 6.5 6.3 6.9 7.8 8.7 8.5 8.4 8.7 8.8 9.0 9.0 9.1 9.2 9.6 9.7 9.6 9.5 9.7 9.3 9.5 9.2 9.3 9.6 9.5 9.3 9.3 9.5 9.6 9.5 7.8 6.9 8.1 9.1 9.2 8.9 8.9 7.6 8.2 8.5 8.1
7.0 6.7 6.9 6.9 6.8 6.8 7.2 7.8 8.1 8.5 8.6 8.4 8.4 8.6 8.5 8.7 8.6 8.9 9.5 9.6 9.6 9.7 9.6 9.6 9.7 9.2 9.1 9.4 9.6 9.6 9.6 9.5 9.5 9.2 9.1 9.0 8.7 8.8 8.6 9.0 8.3 8.4 5.4 8.9 8.2
7.1 6.7 7.1 7.2 7.3 7.6 7.9 8.0 8.0 8.4 8.8 8.5 8.2 8.5 8.5 8.4 8.2 8.9 9.0 9.4 9.4 9.6 9.6 9.5 9.5 9.4 9.2 9.3 9.3 9.7 9.5 9.4 9.4 9.7 9.5 8.6 8.8 7.9 7.6 8.0 7.8 7.3 8.1 8.2 7.8
7.4 7.2 7.0 7.5 7.7 7.4 7.7 8.1 8.5 8.5 8.7 8.0 8.0 8.2 8.5 8.6 8.6 8.5 8.8 9.0 9.0 9.2 9.1 9.2 9.4 9.1 9.0 9.2 9.3 9.0 9.7 9.6 9.4 9.5 9.6 9.3 8.5 7.1 7.5 7.9 7.0 6.5 8.7 8.3 8.1
7.6 7.7 6.7 7.5 7.9 8.0 8.0 7.9 8.5 8.6 8.2 8.2 8.4 8.3 8.1 8.0 8.4 8.3 8.4 8.9 9.0 8.9 8.9 9.0 8.9 9.2 8.7 9.0 9.1 9.3 9.7 9.4 9.4 9.5 9.4 9.2 8.7 7.7 8.1 7.8 7.3 9.1 9.2 9.1 7.6
6.6 6.8 7.2 7.8 7.8 7.9 7.8 8.1 8.2 8.2 8.4 8.4 8.0 8.1 8.4 8.2 8.2 8.1 8.3 8.4 8.8 8.4 8.8 9.0 8.9 9.0 8.9 8.7 8.6 8.7 9.1 9.4 9.4 9.7 9.4 8.8 8.7 8.3 8.3 8.7 8.2 8.4 8.6 8.2 7.5
7.1 7.0 7.2 7.6 7.6 7.8 7.9 8.4 8.6 8.7 8.2 8.2 8.1 8.0 8.3 8.0 8.1 8.2 8.3 8.3 8.2 8.1 8.2 8.3 8.6 8.7 8.8 8.6 8.6 8.5 8.7 9.2 9.4 9.5 9.5 9.1 8.8 8.8 8.6 8.4 8.6 8.6 8.2 7.4 6.9
Wind_Speed
20 21 21 22 22 22 23 24 24 23 22 23 23 21 20 23 26 5 4 4 2 13 5 5 9 11 9 5 3 8 3 3 3 8 2 13 12 12 13 17 14 8 18 18 16
19 19 19 20 22 23 24 24 25 25 24 24 23 19 17 18 5 8 5 8 8 8 3 6 9 7 3 3 1 5 4 5 4 8 3 10 21 11 15 14 18 19 16 18 15
19 19 19 20 20 21 22 23 24 24 24 24 23 20 17 13 4 6 14 9 8 8 6 7 11 10 7 4 3 3 6 9 15 11 13 23 25 17 4 11 13 17 14 15 13
21 21 21 21 21 22 22 23 24 24 24 24 21 20 18 4 3 3 10 10 10 7 6 6 7 5 6 5 5 6 17 19 8 12 7 26 8 9 12 11 18 16 16 13 9
22 22 22 23 22 23 24 25 25 25 24 23 20 16 4 3 8 6 6 7 6 4 6 9 10 8 9 5 12 11 25 23 19 15 18 21 27 5 9 7 16 16 15 14 11
22 24 24 24 24 23 23 24 25 26 24 21 19 18 2 5 4 14 9 7 9 8 10 12 9 12 10 13 8 17 19 8 9 10 19 20 7 15 5 6 6 13 10 11 11
23 24 25 26 27 26 25 25 26 25 23 19 12 5 5 13 3 12 11 10 9 10 14 12 9 5 8 11 11 17 10 8 3 7 8 19 3 14 12 12 2 4 10 9 11
24 25 26 27 28 28 28 28 29 26 22 14 3 3 7 9 11 10 12 8 11 6 9 10 8 7 5 10 16 15 5 2 6 3 11 10 7 14 9 11 7 5 12 11 9
24 25 27 28 29 30 31 34 32 23 13 7 3 3 8 4 6 9 8 10 10 9 8 12 5 3 9 7 7 8 5 11 11 19 14 4 5 18 10 9 10 8 12 12 11
25 26 27 28 29 30 35 35 14 7 5 7 6 5 7 10 7 10 11 12 6 6 6 7 3 5 5 3 5 4 6 13 18 16 17 11 10 10 18 18 14 10 10 11 10
26 28 28 29 29 25 15 6 5 2 4 7 5 5 15 11 1 2 7 6 4 6 7 7 4 7 11 12 6 8 10 11 7 17 6 15 14 15 16 14 11 14 8 5 8
27 27 29 31 31 27 5 4 3 5 8 11 18 20 23 8 3 9 8 8 7 8 9 7 7 13 13 16 12 7 8 9 13 23 4 15 17 10 16 10 8 16 16 18 12
27 28 29 33 35 9 6 8 8 9 4 9 15 12 16 8 9 13 8 9 9 9 11 9 14 14 16 12 12 6 15 9 18 8 18 7 8 8 2 15 21 27 22 10 16
26 27 28 35 4 7 5 5 5 7 3 7 8 9 15 11 13 13 13 9 7 13 10 9 14 13 10 10 10 5 7 10 11 15 9 6 4 4 7 4 14 17 9 13 17
26 26 26 13 8 5 8 13 7 3 3 7 13 6 11 13 11 13 13 8 10 10 7 10 10 9 7 7 4 5 10 8 6 11 2 5 4 2 4 5 6 4 8 19 21
27 25 25 2 3 10 18 13 4 0 6 6 4 5 7 10 14 13 9 7 6 11 11 9 12 5 9 8 7 8 8 7 5 2 4 6 2 4 6 9 5 9 13 21 21
29 26 12 9 5 14 13 3 0 4 5 6 7 10 11 9 11 13 12 8 7 3 6 10 10 8 5 6 5 5 2 3 3 4 5 6 7 7 3 5 7 9 11 16 19
32 33 9 9 14 11 2 1 5 7 13 15 14 11 13 11 11 14 7 8 9 9 4 7 8 8 8 8 9 9 8 6 6 3 4 8 3 3 2 5 6 6 9 13 23
36 2 3 6 21 6 1 4 6 6 9 10 11 11 7 10 10 12 12 9 10 11 8 3 9 8 13 8 7 10 4 10 2 3 2 4 6 3 17 14 8 3 7 11 27
5 4 7 10 17 4 2 5 6 13 15 8 7 8 6 7 5 8 11 13 12 11 10 10 6 10 13 9 8 8 5 2 3 3 5 1 0 4 4 4 11 18 6 9 12
3 3 1 15 6 2 4 7 10 16 17 5 7 9 9 9 13 14 10 8 15 14 9 10 7 16 6 5 7 2 5 3 3 4 5 3 6 7 10 8 15 9 18 9 10
4 3 5 6 3 4 7 6 10 17 1 2 5 8 7 9 10 11 11 4 9 15 11 8 7 6 8 9 8 8 6 7 5 9 2 5 6 9 8 12 6 13 24 8 9
3 4 3 4 4 7 9 16 18 18 5 2 4 7 8 6 6 9 9 10 10 9 5 3 3 0 10 9 7 7 8 5 3 3 4 5 3 14 19 19 15 21 28 6 9
3 3 1 1 5 7 8 11 14 3 3 8 8 9 5 7 6 8 9 9 17 3 3 6 2 4 7 8 2 8 7 4 2 3 5 6 8 7 21 23 23 29 2 8 7
3 4 3 4 5 7 8 10 12 3 5 1 4 7 6 4 7 8 9 9 15 8 4 3 1 4 9 9 9 8 8 5 9 7 4 7 7 10 13 21 19 7 9 4 7
3 3 5 7 2 9 3 4 8 9 5 7 6 7 8 6 6 10 8 7 3 9 9 6 3 1 6 9 11 14 14 5 9 3 5 7 1 5 5 1 8 8 6 2 8
3 4 3 7 5 1 4 6 9 9 7 6 6 6 8 8 9 8 8 5 5 4 5 5 3 2 5 7 9 7 8 9 5 4 9 5 10 8 6 7 9 7 6 5 9
Wind_Direction
355 354 352 346 344 341 339 335 331 329 328 322 322 327 327 322 313 164 246 224 181 159 187 255 209 234 243 251 156 150 76 267 174 218 184 109 112 101 86 77 74 104 134 142 146
353 351 348 345 342 338 335 331 325 323 322 320 320 324 324 330 304 268 209 170 168 154 231 250 271 244 214 348 205 94 130 255 110 354 308 87 50 4 116 99 90 95 117 135 142
350 347 345 343 339 334 328 324 318 317 316 316 320 323 321 320 300 233 147 177 187 185 264 292 289 291 289 147 247 124 219 215 236 221 233 92 101 298 253 128 137 136 136 141 150
347 345 342 338 336 330 326 321 316 314 314 317 322 322 313 213 336 154 177 183 193 234 253 273 271 281 275 251 194 319 270 257 250 207 122 69 92 236 246 151 139 140 146 146 162
346 341 338 335 331 327 325 318 317 312 314 316 321 327 348 275 241 168 190 216 196 204 235 251 264 264 262 285 163 217 250 255 242 162 101 90 74 320 346 46 127 144 150 155 165
345 339 337 333 328 324 321 317 312 308 312 316 321 317 264 275 185 161 185 201 236 199 246 244 249 265 270 276 261 214 241 288 165 148 117 112 160 168 216 81 101 147 160 166 162
343 338 334 331 326 324 320 315 308 304 304 308 312 308 280 245 267 176 176 218 223 223 244 268 274 258 316 320 306 312 239 308 292 137 109 122 86 161 209 110 161 235 176 176 167
340 337 333 329 325 323 319 312 303 297 294 291 303 296 254 266 234 241 203 252 244 247 267 285 307 344 308 290 292 296 68 5 304 323 172 78 230 229 216 143 183 339 191 168 163
338 336 331 328 325 322 319 311 299 288 259 258 252 214 265 275 233 235 243 235 253 223 237 264 288 287 312 293 321 2 56 10 334 325 310 153 197 229 179 188 172 191 262 165 158
336 333 330 326 323 325 323 303 285 317 206 226 254 316 257 243 221 221 216 234 270 318 238 233 250 244 289 289 261 98 74 354 311 288 306 293 238 193 191 204 199 176 237 149 162
334 331 329 324 321 326 342 345 335 12 210 240 209 243 292 231 120 274 290 265 207 290 278 255 190 243 243 254 229 155 104 230 265 260 313 269 265 183 184 190 203 47 108 149 217
333 330 328 323 319 317 287 269 16 269 298 269 268 257 262 276 286 224 220 225 196 226 250 280 232 235 234 252 246 172 137 225 241 256 251 276 278 197 159 181 161 160 181 189 191
332 330 330 325 316 298 225 260 311 301 276 274 241 240 250 233 219 260 202 214 232 220 238 221 246 225 230 239 264 244 159 187 244 235 286 268 297 86 28 137 170 176 197 178 184
330 330 332 331 328 338 270 234 298 324 299 265 221 240 238 220 241 229 254 193 226 242 246 230 261 265 257 220 236 254 258 217 240 155 209 165 248 66 153 238 170 195 224 186 187
328 329 327 316 304 288 321 333 335 13 301 248 223 178 190 198 234 220 228 243 219 248 241 259 256 273 283 262 304 259 288 294 311 314 262 308 89 238 128 251 238 264 227 210 182
323 324 331 128 199 249 290 293 344 210 240 260 126 133 173 217 227 257 205 232 206 251 276 252 265 271 250 257 234 259 269 310 331 352 358 295 209 222 184 210 256 227 254 162 153
318 311 310 303 243 332 326 334 185 221 220 267 174 178 194 223 216 238 204 210 201 240 273 294 280 264 276 322 293 274 16 333 349 323 215 300 15 254 227 222 186 177 133 137 147
317 306 248 219 252 295 273 332 234 219 245 288 308 300 200 193 229 219 215 192 212 232 258 216 288 248 233 208 215 240 170 163 210 204 264 343 271 193 63 111 79 120 152 134 111
317 225 242 232 221 255 318 218 199 246 250 261 318 308 275 199 201 197 221 210 213 192 218 259 265 283 224 200 192 269 180 222 203 285 100 232 333 159 30 14 350 176 120 129 137
312 277 250 211 173 184 201 253 250 268 281 324 323 296 244 284 281 206 199 219 226 215 186 246 281 281 306 185 214 185 214 299 335 259 286 49 297 218 52 358 38 2 82 97 126
236 259 188 150 147 165 215 234 246 267 281 288 316 329 340 337 338 311 220 218 214 237 207 215 161 273 15 183 174 258 265 267 143 142 182 182 245 196 194 120 90 260 291 109 113
292 267 182 125 148 204 234 242 260 276 276 316 303 297 299 318 320 316 308 175 284 208 230 229 172 251 242 278 248 192 215 186 132 281 130 165 270 148 72 44 133 222 280 117 128
278 275 180 165 217 231 238 244 256 262 250 233 289 258 295 296 341 328 343 337 15 33 54 310 356 323 329 337 337 190 239 210 193 140 246 171 275 92 90 74 38 306 287 65 71
280 271 295 201 266 295 289 281 246 203 332 309 319 327 310 330 306 297 331 330 330 52 55 80 90 159 206 226 36 314 267 238 114 125 229 257 120 90 118 136 161 222 43 14 84
231 264 355 208 226 229 267 302 316 178 198 273 307 292 301 337 324 305 320 336 341 8 316 98 29 1 311 311 322 280 230 282 331 259 186 214 154 163 167 149 210 159 120 61 122
292 348 340 290 186 198 231 359 315 310 169 192 228 268 264 273 249 286 330 15 356 343 360 338 273 309 292 311 315 310 307 224 228 348 18 124 141 220 206 75 162 113 67 316 172
329 324 285 282 310 311 230 203 241 280 7 337 342 317 266 25 346 320 313 313 301 328 324 343 26 16 273 300 315 314 275 283 225 193 143 260 224 165 242 161 152 179 196 184 85